sat.trackr.live / text

‹ back to catalog

STARLINK-11112 [DTC]

NORAD 60115 · 2024-118C

PAYLOAD ACTIVE UNKNOWN

§ Identity

Operator
Country
US
Launch date
2024-06-24
Launch site
AFWTR
Launch vehicle
Mass (kg)
RCS (m²)

Purposes: comms

External: N2YO · Heavens-Above · Gunter

§ Orbital elements

Epoch: 2026-09-21T11:49:07.500288Z

Period
91.74 min
Inclination
53.1570°
Eccentricity
0.0000495
Mean motion
15.69707062 rev/d
Perigee alt
359.4 km
Apogee alt
360.1 km
Semi-major
6,737.9 km
B*
6.6987e-6
RAAN
336.2246°
Arg perigee
147.0099°
Mean anomaly
213.0950°
Rev number
12,874

§ Raw data

STARLINK-11112 [DTC]1 60115U 24118C   26264.49244792  .00000224  00000+0  66987-5 0  99982 60115  53.1570 336.2246 0000495 147.0099 213.0950 15.69707062128745

JSON: /api/v1/satellites/60115 · /tle

For live sub-satellite position, see the globe view (requires WebGL).

§ Visibility from observer

Set your observer location to see the next 7 days of passes ≥ 10°. The values pass through the URL so the page stays shareable.

No JS? Fill the form by hand. The geolocation button needs JavaScript.